Temp
-15 -15 -14 -14 -14 -14 -13 -13 -13 -13 -12 -13 -12 -12 -12 -12 -12 -12 -12 -12 -12 -12 -12 -12 -12 -12 -12 -12 -12 -12 -12 -12 -12 -12 -12 -12 -12 -12 -12 -13 -13 -13
-15 -15 -15 -14 -14 -14 -13 -13 -13 -13 -13 -13 -13 -12 -12 -12 -12 -12 -12 -12 -12 -12 -12 -12 -12 -12 -12 -12 -12 -12 -12 -12 -12 -12 -12 -12 -12 -12 -12 -13 -13 -13
-16 -15 -15 -14 -14 -14 -13 -13 -13 -13 -12 -13 -13 -12 -12 -12 -12 -12 -12 -12 -12 -12 -12 -12 -11 -11 -11 -11 -12 -12 -12 -12 -12 -12 -12 -12 -12 -12 -12 -12 -12 -13
-16 -16 -15 -15 -14 -14 -14 -13 -13 -13 -12 -12 -13 -12 -12 -12 -12 -12 -12 -12 -11 -12 -12 -11 -11 -11 -11 -11 -12 -12 -12 -12 -12 -12 -12 -12 -12 -12 -12 -12 -12 -12
-16 -16 -15 -15 -15 -14 -14 -14 -13 -13 -12 -12 -13 -13 -12 -12 -12 -12 -12 -12 -12 -11 -11 -11 -11 -11 -11 -11 -12 -11 -11 -12 -12 -12 -11 -12 -12 -12 -12 -12 -12 -12
-15 -15 -15 -15 -15 -15 -14 -14 -14 -13 -13 -12 -13 -13 -12 -12 -12 -12 -12 -12 -12 -12 -12 -11 -11 -11 -11 -11 -11 -11 -11 -11 -12 -12 -11 -12 -12 -12 -12 -12 -12 -12
-15 -15 -15 -15 -15 -15 -15 -14 -14 -14 -13 -13 -13 -13 -12 -12 -12 -12 -12 -12 -12 -12 -12 -12 -12 -12 -12 -11 -11 -11 -11 -11 -11 -12 -11 -11 -12 -12 -12 -12 -12 -12
-15 -15 -15 -15 -15 -15 -15 -15 -14 -14 -13 -13 -13 -13 -12 -12 -12 -12 -12 -12 -12 -12 -12 -12 -12 -12 -12 -12 -11 -11 -11 -11 -11 -12 -12 -12 -11 -11 -12 -12 -12 -12
-15 -15 -15 -15 -15 -15 -15 -15 -15 -14 -14 -13 -13 -13 -12 -12 -12 -12 -12 -12 -12 -12 -12 -12 -12 -12 -12 -12 -11 -11 -11 -11 -11 -12 -12 -12 -11 -11 -11 -12 -12 -12
-15 -15 -15 -15 -15 -15 -14 -14 -15 -15 -14 -14 -13 -13 -13 -12 -12 -12 -12 -12 -12 -12 -11 -11 -11 -11 -11 -12 -12 -11 -11 -12 -12 -12 -12 -11 -11 -11 -11 -11 -11 -12
-15 -15 -15 -15 -15 -14 -14 -14 -14 -14 -14 -14 -14 -13 -13 -13 -12 -12 -12 -12 -12 -12 -11 -11 -11 -11 -11 -11 -11 -12 -12 -12 -12 -12 -11 -11 -12 -12 -12 -12 -11 -11
-14 -14 -14 -14 -14 -14 -14 -14 -14 -14 -14 -14 -14 -14 -13 -13 -13 -12 -12 -12 -12 -12 -12 -12 -12 -12 -11 -11 -11 -11 -11 -11 -11 -11 -11 -11 -12 -12 -12 -12 -11 -11
-14 -14 -14 -14 -14 -14 -14 -14 -14 -14 -14 -14 -14 -14 -14 -13 -13 -13 -12 -12 -12 -12 -12 -12 -12 -12 -11 -11 -11 -11 -11 -11 -11 -11 -11 -11 -11 -12 -12 -12 -12 -11
-14 -14 -14 -14 -14 -14 -14 -14 -14 -14 -14 -14 -14 -14 -14 -14 -14 -13 -13 -12 -12 -12 -12 -12 -12 -12 -11 -11 -11 -11 -11 -11 -11 -11 -11 -11 -11 -12 -12 -12 -12 -11
-14 -14 -14 -14 -14 -14 -14 -14 -14 -14 -14 -14 -14 -14 -14 -14 -14 -14 -13 -13 -12 -12 -12 -12 -12 -12 -11 -11 -11 -11 -11 -11 -11 -12 -11 -11 -11 -12 -11 -12 -12 -11
-15 -14 -14 -14 -14 -14 -14 -14 -14 -14 -14 -14 -14 -14 -14 -14 -14 -14 -14 -14 -13 -12 -12 -12 -12 -12 -12 -11 -11 -11 -11 -12 -11 -11 -11 -11 -11 -11 -11 -11 -11 -11
-15 -15 -14 -14 -14 -14 -14 -14 -14 -14 -15 -15 -15 -15 -15 -15 -15 -15 -15 -14 -14 -13 -12 -12 -12 -12 -12 -11 -11 -11 -12 -12 -12 -11 -11 -11 -11 -11 -11 -11 -11 -11
-15 -15 -14 -14 -14 -14 -14 -14 -14 -15 -15 -15 -15 -15 -15 -15 -15 -15 -15 -15 -15 -14 -13 -12 -12 -12 -12 -11 -11 -11 -12 -12 -12 -11 -12 -12 -11 -11 -11 -11 -11 -11
-15 -15 -14 -14 -14 -14 -14 -14 -14 -15 -15 -16 -16 -16 -16 -16 -16 -16 -16 -16 -15 -14 -14 -13 -12 -12 -12 -12 -12 -12 -12 -12 -12 -12 -12 -12 -11 -11 -11 -11 -11 -11
-15 -15 -15 -15 -15 -15 -15 -15 -15 -15 -16 -16 -17 -17 -17 -17 -16 -16 -16 -16 -16 -15 -14 -13 -13 -12 -12 -12 -13 -12 -12 -12 -12 -12 -12 -12 -11 -11 -11 -11 -11 -11
-15 -15 -15 -15 -15 -15 -15 -15 -15 -16 -17 -18 -18 -18 -18 -18 -17 -17 -16 -16 -16 -16 -15 -14 -13 -13 -13 -13 -13 -13 -12 -12 -12 -12 -12 -11 -12 -12 -12 -11 -11 -11
-16 -15 -15 -15 -15 -15 -16 -16 -17 -17 -18 -19 -19 -19 -19 -19 -19 -18 -18 -17 -17 -16 -16 -15 -14 -14 -14 -13 -13 -13 -13 -12 -12 -12 -12 -12 -12 -12 -12 -12 -12 -12
-16 -16 -16 -16 -16 -16 -16 -17 -17 -18 -19 -20 -20 -20 -20 -20 -20 -20 -19 -18 -18 -17 -17 -16 -15 -15 -14 -14 -14 -13 -13 -13 -12 -12 -12 -12 -12 -12 -12 -12 -12 -12
-16 -16 -16 -16 -16 -16 -17 -17 -18 -19 -20 -20 -21 -21 -21 -21 -21 -21 -20 -20 -19 -18 -18 -17 -16 -16 -15 -15 -15 -14 -13 -13 -12 -12 -12 -12 -12 -12 -12 -12 -12 -12
-16 -16 -16 -16 -17 -17 -17 -18 -18 -19 -20 -21 -21 -21 -21 -21 -21 -21 -21 -20 -19 -19 -19 -18 -17 -17 -16 -16 -15 -14 -13 -13 -13 -13 -13 -12 -13 -13 -12 -12 -12 -12
-17 -16 -17 -17 -17 -17 -17 -18 -18 -19 -20 -21 -21 -21 -21 -21 -21 -21 -21 -21 -20 -19 -19 -18 -18 -17 -16 -16 -15 -15 -14 -13 -13 -13 -13 -13 -13 -13 -13 -13 -13 -13
Height
5701 5702 5704 5707 5710 5713 5716 5718 5721 5724 5727 5730 5733 5736 5739 5742 5744 5746 5748 5751 5752 5754 5757 5759 5761 5764 5766 5769 5771 5774 5776 5778 5780 5782 5783 5785 5788 5789 5791 5793 5794 5796
5695 5696 5697 5700 5703 5705 5709 5711 5714 5717 5721 5723 5726 5729 5733 5736 5739 5741 5743 5746 5748 5750 5752 5753 5755 5758 5761 5763 5766 5768 5770 5772 5775 5777 5778 5781 5783 5785 5787 5788 5789 5791
5689 5690 5690 5692 5695 5698 5701 5704 5707 5710 5713 5716 5719 5723 5726 5730 5733 5735 5737 5740 5742 5744 5747 5749 5750 5753 5755 5757 5759 5762 5765 5768 5770 5772 5774 5776 5778 5779 5781 5783 5784 5786
5683 5684 5684 5685 5688 5691 5694 5697 5700 5703 5705 5709 5712 5715 5719 5723 5726 5728 5730 5734 5736 5739 5741 5744 5746 5747 5750 5751 5752 5756 5761 5764 5765 5767 5768 5771 5772 5773 5775 5777 5779 5781
5677 5678 5679 5680 5681 5684 5687 5690 5693 5696 5698 5701 5705 5708 5712 5716 5719 5722 5725 5727 5730 5732 5735 5738 5740 5741 5744 5745 5747 5751 5755 5758 5760 5761 5763 5766 5768 5769 5771 5771 5773 5776
5672 5672 5673 5674 5675 5676 5679 5682 5685 5688 5691 5694 5697 5701 5705 5708 5712 5716 5719 5721 5724 5726 5729 5731 5733 5736 5738 5740 5742 5745 5748 5752 5755 5756 5756 5760 5764 5766 5768 5768 5769 5771
5665 5666 5667 5668 5669 5670 5672 5675 5677 5680 5683 5686 5689 5694 5697 5700 5704 5708 5712 5715 5717 5720 5722 5724 5727 5730 5732 5734 5737 5740 5741 5745 5750 5750 5751 5755 5757 5760 5764 5766 5767 5768
5660 5660 5661 5661 5663 5664 5666 5667 5669 5671 5674 5678 5682 5686 5690 5693 5696 5699 5704 5708 5711 5713 5716 5718 5721 5724 5727 5729 5731 5733 5735 5738 5742 5743 5746 5749 5750 5752 5757 5761 5763 5765
5654 5654 5655 5656 5657 5658 5659 5661 5662 5664 5666 5670 5674 5678 5682 5685 5689 5692 5696 5700 5704 5706 5709 5712 5715 5718 5721 5723 5725 5727 5729 5732 5735 5738 5740 5743 5744 5747 5751 5755 5758 5761
5649 5649 5649 5650 5651 5651 5653 5654 5656 5658 5659 5662 5666 5670 5674 5677 5681 5684 5688 5692 5695 5699 5702 5705 5708 5712 5715 5718 5721 5723 5725 5727 5730 5733 5735 5738 5740 5743 5747 5749 5752 5755
5643 5644 5644 5644 5645 5645 5647 5648 5650 5652 5653 5655 5658 5661 5664 5668 5672 5676 5679 5683 5687 5691 5694 5697 5701 5705 5708 5712 5716 5718 5720 5722 5725 5727 5730 5733 5736 5739 5741 5743 5746 5750
5638 5638 5639 5639 5639 5640 5641 5642 5644 5646 5647 5649 5650 5652 5655 5659 5663 5667 5670 5675 5679 5682 5685 5689 5693 5697 5701 5705 5709 5711 5714 5716 5718 5720 5723 5725 5729 5732 5735 5737 5741 5745
5632 5632 5632 5633 5633 5634 5635 5636 5638 5639 5641 5642 5643 5644 5647 5650 5653 5657 5661 5666 5670 5673 5677 5681 5685 5689 5693 5697 5701 5704 5706 5708 5711 5714 5716 5718 5722 5726 5729 5731 5734 5738
5626 5625 5626 5626 5626 5627 5628 5629 5631 5632 5634 5635 5636 5637 5639 5642 5644 5647 5651 5656 5660 5664 5668 5672 5676 5680 5685 5689 5692 5696 5698 5700 5703 5707 5710 5713 5716 5720 5723 5725 5727 5731
5621 5620 5620 5620 5620 5620 5621 5622 5624 5625 5626 5628 5628 5630 5632 5634 5636 5639 5642 5646 5650 5655 5659 5663 5667 5672 5677 5681 5685 5688 5690 5692 5696 5701 5704 5707 5710 5713 5715 5717 5720 5723
5617 5615 5614 5614 5614 5614 5615 5616 5617 5618 5619 5620 5621 5623 5625 5627 5629 5631 5634 5637 5641 5645 5649 5654 5658 5663 5669 5673 5677 5680 5682 5685 5689 5693 5697 5700 5703 5706 5708 5710 5713 5715
5612 5610 5609 5609 5608 5609 5609 5609 5610 5611 5612 5613 5614 5616 5617 5619 5621 5624 5626 5629 5631 5635 5639 5644 5649 5654 5660 5664 5669 5672 5674 5677 5682 5686 5689 5692 5696 5699 5701 5703 5706 5708
5607 5605 5604 5603 5603 5603 5603 5603 5604 5604 5604 5605 5606 5607 5609 5610 5612 5615 5617 5619 5622 5625 5630 5635 5640 5645 5651 5656 5660 5663 5666 5670 5674 5678 5681 5685 5689 5692 5694 5697 5698 5700
5602 5600 5598 5597 5597 5597 5597 5597 5597 5596 5596 5596 5597 5598 5599 5600 5602 5605 5607 5609 5612 5616 5621 5626 5631 5636 5642 5648 5652 5655 5659 5663 5667 5671 5675 5678 5681 5684 5687 5689 5691 5691
5597 5595 5593 5592 5591 5591 5590 5590 5589 5588 5587 5586 5587 5588 5590 5591 5592 5594 5596 5599 5602 5606 5611 5616 5621 5627 5634 5639 5643 5647 5652 5655 5660 5665 5669 5672 5675 5677 5680 5682 5684 5685
5592 5590 5588 5586 5585 5584 5583 5582 5581 5580 5578 5577 5577 5578 5580 5581 5582 5583 5586 5589 5592 5596 5600 5606 5612 5618 5625 5629 5634 5639 5644 5648 5653 5658 5662 5665 5667 5670 5674 5676 5678 5679
5587 5585 5582 5580 5578 5576 5575 5574 5572 5571 5569 5568 5568 5569 5570 5572 5573 5574 5576 5579 5583 5586 5590 5597 5603 5609 5614 5620 5626 5632 5636 5641 5647 5651 5654 5657 5661 5664 5668 5671 5673 5674
5582 5580 5577 5574 5572 5569 5568 5566 5564 5562 5561 5560 5561 5562 5563 5564 5565 5566 5568 5571 5574 5578 5582 5587 5594 5599 5605 5612 5619 5624 5628 5633 5639 5644 5647 5650 5654 5658 5662 5665 5667 5669
5577 5574 5571 5568 5566 5563 5561 5559 5557 5555 5553 5553 5555 5556 5556 5557 5558 5560 5562 5564 5567 5571 5574 5579 5586 5591 5597 5604 5611 5617 5621 5625 5631 5636 5640 5642 5645 5650 5655 5658 5660 5663
5572 5569 5567 5564 5561 5558 5555 5553 5550 5548 5547 5547 5548 5549 5550 5551 5552 5554 5556 5559 5562 5565 5569 5573 5579 5585 5591 5597 5603 5609 5614 5619 5624 5629 5633 5636 5639 5643 5648 5650 5653 5656
5567 5565 5563 5560 5557 5554 5551 5548 5544 5542 5540 5540 5541 5542 5544 5546 5547 5549 5551 5554 5557 5560 5565 5570 5574 5579 5585 5591 5596 5601 5607 5612 5617 5622 5626 5629 5632 5636 5640 5643 5647 5650
Wind_Speed
46 50 54 55 55 55 56 57 59 59 60 61 59 58 56 53 54 55 53 49 46 43 43 45 48 51 53 54 52 51 51 50 49 49 48 47 45 42 41 40 39 38
44 47 51 54 56 57 57 57 58 59 61 61 60 60 58 55 56 57 57 55 52 46 43 45 46 48 51 54 54 54 54 53 52 51 51 48 47 45 43 42 41 40
42 45 49 52 54 57 58 58 58 59 60 61 60 61 60 57 57 58 58 59 59 55 49 46 47 47 48 53 56 56 56 56 54 53 52 49 48 47 45 44 43 42
40 43 46 49 52 54 57 58 59 60 61 61 60 60 61 59 58 59 59 59 61 61 57 52 49 48 48 52 57 57 57 58 56 55 54 51 50 50 48 47 46 44
37 40 42 46 49 51 54 56 58 60 61 61 60 60 61 61 60 59 59 57 58 60 60 57 53 51 49 50 54 56 58 60 59 56 55 53 52 52 50 49 47 45
34 36 38 41 44 48 50 52 55 58 61 62 61 60 60 62 62 61 60 57 55 57 58 57 55 53 49 48 50 54 57 60 61 59 56 54 52 52 51 50 48 47
35 35 36 37 40 43 46 49 52 55 59 62 62 61 60 62 63 63 62 59 56 54 54 54 54 53 51 48 48 52 57 59 61 62 59 55 53 53 52 51 50 48
37 37 37 37 37 39 42 45 49 52 56 60 62 61 61 62 63 64 64 63 61 59 56 54 53 52 52 51 48 49 55 59 61 63 61 57 56 54 53 52 52 50
36 38 38 38 38 39 40 42 44 47 52 57 60 61 61 62 64 65 65 65 65 65 64 61 58 55 53 52 50 48 52 55 58 62 62 60 59 56 53 53 52 51
34 36 37 38 40 40 40 40 41 43 47 52 57 59 60 62 64 65 65 66 66 68 68 67 66 62 58 54 50 48 49 52 54 58 61 60 59 57 54 53 53 52
34 35 35 36 39 41 41 40 40 41 42 46 52 56 59 60 62 64 66 66 66 67 69 69 67 66 63 60 55 50 49 49 51 55 59 60 60 59 57 55 54 54
34 35 36 36 37 39 41 42 41 41 40 41 46 52 57 60 61 63 65 66 67 67 68 68 67 65 63 62 60 56 53 51 50 51 55 60 63 63 60 57 55 55
33 34 36 38 39 39 40 41 42 42 42 41 43 47 52 58 61 63 64 66 67 68 68 68 67 65 63 62 63 63 61 60 55 50 51 56 61 63 61 58 57 57
29 31 32 34 36 39 40 40 40 41 42 42 44 44 46 51 57 62 65 66 68 69 69 68 67 66 64 64 65 66 66 66 62 55 51 51 55 60 61 60 60 59
24 26 29 30 31 33 36 38 39 40 41 42 43 44 45 47 51 57 63 66 68 69 69 69 68 67 66 65 66 67 67 67 64 59 55 52 52 55 58 60 62 63
23 23 25 27 29 30 32 33 35 37 39 41 42 43 45 46 48 52 57 63 67 69 70 70 70 68 67 67 67 67 67 65 62 59 59 58 55 53 54 57 60 64
27 24 23 24 27 29 31 32 34 35 37 40 43 45 46 47 49 51 53 58 64 69 70 71 71 69 68 68 68 68 67 65 61 59 60 61 59 54 53 55 57 62
29 26 25 25 25 28 31 33 36 38 39 42 45 47 48 50 51 52 53 56 60 66 70 71 72 71 69 69 69 69 68 65 61 59 59 59 59 56 53 54 56 60
29 27 26 26 26 27 30 34 37 40 42 45 47 48 51 53 54 55 55 56 58 64 69 72 72 71 69 67 69 70 68 66 63 61 57 56 57 57 54 52 53 56
27 27 26 27 27 27 29 33 38 42 44 46 48 50 52 55 57 58 57 57 58 62 68 72 72 71 68 64 66 68 68 67 66 62 58 55 56 58 55 51 50 50
26 27 27 28 28 29 30 33 37 42 45 46 48 51 53 55 58 59 59 58 57 60 66 72 72 71 68 64 63 64 66 67 66 62 60 59 59 58 55 50 48 48
26 27 27 28 29 30 31 33 36 40 42 44 46 49 50 52 55 57 58 57 57 58 64 70 72 70 68 66 64 61 62 64 65 63 61 60 60 59 55 50 48 48
25 26 27 29 30 31 32 33 36 38 39 42 44 46 47 48 50 53 54 53 54 57 62 68 71 70 68 66 64 61 60 60 63 63 60 58 58 58 55 52 51 49
23 25 26 28 30 30 30 33 35 37 39 42 44 43 44 45 45 47 49 49 50 54 60 65 67 68 68 65 63 63 62 60 61 62 61 59 59 58 55 54 54 53
23 23 25 27 28 28 29 31 34 36 37 41 44 44 43 43 43 43 44 45 45 48 55 61 63 64 65 64 62 64 65 63 61 59 59 59 59 57 54 54 54 53
23 22 23 25 25 26 28 30 32 35 36 39 43 44 43 41 40 40 40 42 44 45 49 56 60 59 59 61 62 64 67 67 63 58 56 57 57 56 54 53 51 49
Wind_Direction
252 250 248 246 245 244 243 242 243 242 243 244 242 241 240 239 239 238 236 234 233 235 239 240 238 236 236 235 235 234 233 233 234 234 235 237 238 237 236 237 238 240
252 251 250 248 245 244 242 242 242 241 242 243 242 241 240 238 238 239 237 236 235 236 240 241 239 239 239 239 238 236 235 234 234 236 238 238 240 239 238 237 238 239
253 250 250 249 247 245 243 242 241 240 241 242 241 241 240 238 237 238 239 238 238 238 239 240 240 240 242 242 241 239 237 235 235 237 239 239 239 239 239 238 238 239
256 252 250 249 248 247 246 244 242 240 240 241 240 240 240 239 237 238 239 239 240 241 241 240 240 241 242 243 242 242 240 237 236 237 239 239 238 237 237 238 238 238
259 257 253 251 249 247 246 245 244 242 240 240 240 239 239 239 238 237 238 238 239 240 240 239 239 240 242 243 243 243 242 238 236 237 239 239 238 237 236 237 238 238
262 260 257 254 252 249 247 245 244 244 242 241 240 239 238 238 238 236 236 237 237 237 236 236 237 238 240 243 243 243 243 240 237 236 237 238 239 238 238 238 239 239
263 261 259 256 254 251 249 246 243 242 242 242 242 240 238 237 238 237 235 235 235 235 234 235 236 237 239 243 245 243 243 241 237 236 235 236 238 238 238 240 241 241
263 262 261 259 257 254 251 248 244 241 240 241 242 241 239 237 237 237 236 234 235 235 236 237 238 239 241 244 246 246 243 239 235 235 235 235 236 236 236 238 242 243
262 262 261 260 259 257 254 251 248 243 240 239 240 241 240 238 237 237 236 235 235 236 237 239 240 242 242 244 246 246 241 236 234 234 235 235 235 236 235 237 240 242
263 262 261 259 257 256 255 254 251 248 243 239 238 239 240 239 238 237 237 236 236 236 238 239 241 242 243 244 246 244 237 235 236 238 238 237 237 237 236 237 239 240
272 267 263 260 257 255 255 255 252 250 247 242 238 236 237 238 238 238 237 237 236 237 238 240 241 242 242 243 243 240 235 235 238 241 241 241 240 238 237 237 238 239
277 272 267 263 260 257 256 256 254 252 250 246 241 237 235 235 235 236 237 237 237 237 238 239 240 240 240 240 239 237 235 236 240 244 244 241 238 237 237 238 238 239
279 275 270 266 263 261 260 258 257 254 251 248 245 241 237 234 233 233 235 235 236 236 237 238 239 238 237 237 236 235 236 237 240 244 245 241 237 236 238 239 238 238
286 279 275 271 266 261 260 259 258 256 252 249 247 246 242 239 235 232 232 233 234 235 235 236 237 237 236 235 234 234 236 239 240 240 242 241 238 238 240 241 239 238
299 287 279 275 270 263 258 257 257 255 252 249 247 247 246 245 241 237 233 232 232 233 234 234 235 235 234 234 234 235 237 239 240 239 239 240 239 239 242 243 241 240
305 297 285 277 272 266 260 257 255 253 251 249 248 249 249 249 247 244 239 235 232 232 232 233 234 234 233 233 234 235 237 239 240 238 238 238 239 241 243 244 243 241
301 298 292 283 276 270 264 258 253 250 250 250 250 251 252 252 250 248 245 240 235 232 231 231 232 232 232 232 233 235 237 238 238 237 237 237 238 241 244 245 246 245
301 299 293 287 283 277 270 263 257 251 248 247 247 248 249 250 249 248 247 244 240 234 230 230 231 231 231 232 232 234 235 236 236 236 237 238 238 241 246 248 250 249
304 301 293 287 285 282 277 271 266 260 255 250 247 245 244 245 246 246 245 244 241 236 231 228 229 229 229 231 233 233 234 235 235 235 237 239 239 240 247 251 251 249
306 303 296 289 287 285 280 274 269 266 263 256 250 245 243 243 243 243 243 241 240 236 231 228 227 227 227 229 232 233 233 234 235 236 238 241 241 241 245 250 249 245
308 308 301 294 292 289 284 276 271 268 265 259 251 245 242 242 242 242 241 239 237 235 230 227 226 225 224 226 229 232 233 234 235 237 239 241 240 239 242 247 248 243
307 310 307 301 298 295 288 281 276 272 266 258 251 246 243 243 243 243 242 239 235 232 229 227 225 223 222 223 225 228 231 233 233 235 238 239 238 238 240 244 245 243
303 309 311 309 305 300 292 285 279 273 264 254 248 245 243 244 246 246 245 240 233 229 226 225 224 223 221 222 223 224 227 230 230 231 236 239 239 239 241 243 244 244
300 307 313 313 311 305 297 288 282 275 263 251 244 242 243 245 247 248 247 241 232 228 226 224 224 223 222 222 222 222 224 227 228 229 232 236 238 240 241 242 242 243
299 306 312 314 313 311 305 295 286 278 265 251 243 240 241 245 247 249 248 240 231 230 228 224 222 223 223 222 222 222 223 225 227 228 230 234 238 239 240 240 241 242
296 301 307 312 314 313 311 304 292 281 267 252 244 241 241 244 246 248 246 238 229 229 228 225 223 223 223 221 221 223 224 224 226 228 230 234 238 238 238 239 240 243